ONEWEB-0067 (45425 NORAD) Tracking and Keplerian Element Data

This shows tracking and keplerian element data for the satellite.

Feedback or suggestion? Click here.




ElementValue
Catalog45425
NameONEWEB-0067
Epoch Orbit3220
Epoch Day297.91667824
Epoch Year2020
RAAN71.7423
Inclination87.789
Eccentricity0.0022119
Argument of Perigee232.6371
Mean Anonmoly306.5892
Mean Motion13.97414906
Decay Rate-0.00021427
L11 45425U 20020B 20297.91667824 -.00021427 00000-0 -15294-1 0 9997
L22 45425 87.7890 71.7423 0022119 232.6371 306.5892 13.97414906 32208

Live tracking and technical data element details for ONEWEB-0067 (NORAD 45425). ONEWEB-0067 can be tracked NOW for your location showing map with azimuth and elevation plus other details from your city location.

Track the satellite on the map from your city or location and see movement details for azimuth, elevation, latitude, longitude, range, height, and movement on the map or in text.







IsCatalogInMostPopularTable: catalog: 45425, numindb: 56
Update: records affected: 1



GetName: 45425 ONEWEB-0067

Hit Count: updated at: Sat, 24 Oct 2020 23:39:22 GMT